Cahokia, IL

8:54 PM CST on December 13, 2019 (GMT -0600)
Saint Louis Downtown

Weather History for KCPS - October, 2019

Change the Weather History Date:

Sunday, October 27, 2019

  Actual Average Record
Temperature  
Mean Temperature 54 °F -  
Max Temperature 68 °F 62 °F 84 °F (1950)
Min Temperature 39 °F 41 °F 27 °F (2013)
Degree Days  
Heating Degree Days 12    
Growing Degree Days 4 (Base 50)    
Moisture  
Dew Point 46 °F    
Average Humidity 86    
Maximum Humidity 100    
Minimum Humidity 52    
Precipitation  
Precipitation 0.00 in - - ()
Sea Level Pressure  
Sea Level Pressure 29.95 in    
Wind  
Wind Speed 3 mph (SSW)    
Max Wind Speed 8 mph    
Max Gust Speed -    
Visibility 6 miles    
Events Fog    
Averages and records for this station are not official NWS values.
T = Trace of Precipitation, MM = Missing Value Source: NWS Daily Summary

Daily Weather History Graph

Daily Weather History Graph

Search for Another Location

Airport or City:

Astronomy

Oct. 27, 2019 Rise Set
Actual Time 7:21 AM CDT 6:06 PM CDT
Civil Twilight 6:54 AM CDT 6:33 PM CDT
Nautical Twilight 6:23 AM CDT 7:05 PM CDT
Astronomical Twilight 5:52 AM CDT 7:35 PM CDT
Moon 6:31 AM CDT (10/27) 6:15 PM CDT (10/27)
Length of Visible Light 11h 39m
Length of Day
10h 44m
Waning Crescent, 0% of the Moon is Illuminated
Oct 27
Waning Crescent
Oct 27
New
Nov 4
First Quarter
Nov 12
Full
Nov 19
Last Quarter

Hourly Weather History & Observations

Time (CDT) Temp. Windchill Dew Point Humidity Pressure Visibility Wind Dir Wind Speed Gust Speed Precip Events Conditions
12:17 AM 48.0 °F - 46.0 °F 93% 29.79 in 10.0 mi WSW 3.5 mph - N/A   Partly Cloudy
12:53 AM 46.9 °F - 44.1 °F 90% 29.80 in 8.0 mi WSW 4.6 mph - N/A   Clear
1:53 AM 46.9 °F - 45.0 °F 93% 29.84 in 7.0 mi WSW 3.5 mph - N/A   Clear
2:41 AM 44.1 °F - 42.1 °F 93% 29.85 in 1.8 mi Calm Calm - N/A   Clear
2:53 AM 43.0 °F - 42.1 °F 97% 29.86 in 2.0 mi Calm Calm - N/A   Clear
3:00 AM 44.1 °F - 43.0 °F 96% 29.85 in 1.8 mi Calm Calm - N/A   Clear
3:53 AM 45.0 °F 42.6 °F 44.1 °F 97% 29.88 in 6.0 mi SW 4.6 mph - N/A   Clear
4:53 AM 45.0 °F - 43.0 °F 93% 29.89 in 5.0 mi Calm Calm - N/A   Clear
5:19 AM 42.1 °F - 41.0 °F 96% 29.90 in 1.8 mi Calm Calm - N/A   Clear
5:31 AM 39.9 °F - 39.0 °F 97% 29.91 in 0.2 mi Calm Calm - N/A Fog Fog
5:53 AM 39.0 °F - 39.0 °F 100% 29.92 in 0.2 mi Calm Calm - N/A Fog Fog
6:39 AM 43.0 °F - 42.1 °F 97% 29.93 in 0.2 mi Calm Calm - N/A Fog Fog
6:53 AM 44.1 °F 42.5 °F 43.0 °F 96% 29.94 in 0.2 mi Variable 3.5 mph - N/A Fog Fog
7:00 AM 45.0 °F 41.2 °F 43.0 °F 93% 29.94 in 0.8 mi SSW 6.9 mph - N/A   Overcast
7:36 AM 45.0 °F 42.6 °F 44.1 °F 97% 29.95 in 0.2 mi SW 4.6 mph - N/A Fog Fog
7:53 AM 45.0 °F 42.6 °F 45.0 °F 100% 29.95 in 0.2 mi Variable 4.6 mph - N/A Fog Fog
8:00 AM 46.0 °F 43.1 °F 45.0 °F 96% 29.95 in 0.5 mi SSW 5.8 mph - N/A Fog Fog
8:53 AM 46.9 °F - 46.0 °F 97% 29.99 in 1.5 mi SW 4.6 mph - N/A   Overcast
9:00 AM 46.9 °F - 46.0 °F 97% 29.98 in 3.0 mi Variable 4.6 mph - N/A   Overcast
9:12 AM 46.9 °F - 46.0 °F 97% 29.99 in 4.0 mi South 5.8 mph - N/A   Overcast
9:53 AM 48.0 °F - 46.9 °F 96% 30.01 in 5.0 mi SSW 3.5 mph - N/A   Overcast
10:38 AM 50.0 °F - 46.9 °F 89% 30.00 in 10.0 mi Variable 5.8 mph - N/A   Overcast
10:53 AM 50.0 °F - 48.0 °F 93% 30.01 in 10.0 mi WSW 5.8 mph - N/A   Overcast
11:40 AM 53.1 °F - 48.0 °F 83% 30.01 in 10.0 mi WSW 5.8 mph - N/A   Scattered Clouds
11:53 AM 55.0 °F - 50.0 °F 83% 30.01 in 10.0 mi Variable 3.5 mph - N/A   Partly Cloudy
12:53 PM 60.1 °F - 51.1 °F 72% 30.00 in 10.0 mi SSW 5.8 mph - N/A   Clear
1:53 PM 63.0 °F - 51.1 °F 65% 29.98 in 10.0 mi SW 4.6 mph - N/A   Clear
2:53 PM 66.0 °F - 50.0 °F 56% 29.97 in 10.0 mi Variable 3.5 mph - N/A   Clear
3:53 PM 66.9 °F - 48.9 °F 52% 29.96 in 10.0 mi SW 6.9 mph - N/A   Clear
4:53 PM 68.0 °F - 50.0 °F 52% 29.96 in 10.0 mi South 5.8 mph - N/A   Clear
5:53 PM 62.1 °F - 51.1 °F 67% 29.97 in 10.0 mi SSE 5.8 mph - N/A   Clear
6:53 PM 57.9 °F - 50.0 °F 75% 29.98 in 10.0 mi SSE 4.6 mph - N/A   Clear
7:53 PM 55.9 °F - 48.9 °F 77% 29.99 in 10.0 mi SSE 6.9 mph - N/A   Clear
8:53 PM 55.9 °F - 48.0 °F 75% 29.99 in 10.0 mi SSE 8.1 mph - N/A   Clear
9:53 PM 55.0 °F - 48.0 °F 77% 30.01 in 10.0 mi SSE 4.6 mph - N/A   Clear
10:53 PM 52.0 °F - 46.9 °F 83% 30.01 in 10.0 mi Calm Calm - N/A   Clear
11:53 PM 51.1 °F - 48.0 °F 89% 30.01 in 10.0 mi SSE 3.5 mph - N/A   Clear